2020-058B (46233 NORAD) Tracking and Keplerian Element Data

This shows tracking and keplerian element data for the satellite.

Feedback or suggestion? Click here.




ElementValue
Catalog46233
Name2020-058B
Epoch Orbit1560
Epoch Day338.65081741
Epoch Year2020
RAAN26.1404
Inclination97.4881
Eccentricity0.0014721
Argument of Perigee271.6067
Mean Anonmoly187.3389
Mean Motion15.24164392
Decay Rate1.213E-05
L11 46233U 20058B 20338.65081741 .00001213 00000-0 52743-4 0 9993
L22 46233 97.4881 26.1404 0014721 271.6067 187.3389 15.24164392 15606

Live tracking and technical data element details for 2020-058B (NORAD 46233). 2020-058B can be tracked NOW for your location showing map with azimuth and elevation plus other details from your city location.

Track the satellite on the map from your city or location and see movement details for azimuth, elevation, latitude, longitude, range, height, and movement on the map or in text.







IsCatalogInMostPopularTable: catalog: 46233, numindb: 18
Update: records affected: 1



GetName: 46233 2020-058B

Hit Count: updated at: Sat, 05 Dec 2020 06:11:23 GMT